GW5159 Weather Reports


time (UTC)temp
C
wind
direction
speed
KPH
gust
KPH
rain 1hr
cm
rain 24hr
cm
rain mn
cm
humidity
%
barometer
mb
20260506151201 -17 254 0.0 1.6 0.00 0.99 0.99 1005.9
20260506150658 -17 277 3.2 4.8 0.00 0.99 0.99 1006.0
20260506150155 -17 313 8.0 9.7 0.13 0.99 0.99 1006.0
20260506145652 -17 325 8.0 11.3 0.13 0.99 0.99 1006.0
20260506145149 -17 288 9.7 11.3 0.00 0.97 0.97 1005.9
20260506144647 -17 320 9.7 12.9 0.00 0.97 0.97 1005.7
20260506144143 -17 298 6.4 9.7 0.00 0.97 0.97 1005.9
20260506143641 -17 326 6.4 9.7 0.00 0.97 0.97 1005.9
20260506143139 -17 321 9.7 11.3 0.18 0.97 0.97 1005.6
20260506142637 -17 297 6.4 6.4 0.18 0.97 0.97 1005.7
20260506142135 -17 326 4.8 9.7 0.00 0.94 0.94 1005.7
20260506141632 -17 316 8.0 9.7 0.00 0.94 0.94 1005.6
20260506141130 -17 319 8.0 9.7 0.13 0.94 0.94 1005.6
20260506140627 -17 312 4.8 6.4 0.13 0.94 0.94 1005.7
20260506140124 -17 319 6.4 9.7 0.00 0.91 0.91 1005.9
20260506135621 -17 317 4.8 11.3 0.18 0.91 0.91 1005.7
20260506135117 -17 326 8.0 9.7 0.18 0.91 0.91 1005.7
20260506134614 -17 310 4.8 9.7 0.00 0.89 0.89 1005.7
20260506134110 -17 313 4.8 11.3 0.18 0.89 0.89 1005.7
20260506133608 -17 307 6.4 6.4 0.18 0.89 0.89 1005.9
20260506133104 -17 306 3.2 4.8 0.13 0.86 0.86 1005.6
20260506132601 -17 324 3.2 6.4 0.13 0.86 0.86 1005.7
20260506132058 -17 302 3.2 3.2 0.18 0.84 0.84 1006.0
20260506131556 -17 298 1.6 3.2 0.13 0.81 0.81 1006.0
20260506131052 -17 306 1.6 3.2 0.30 0.81 0.81 1005.9
20260506130549 -17 270 1.6 1.6 0.30 0.79 0.79 1006.0
20260506130047 -17 262 0.0 0.0 0.18 0.74 0.74 1006.1
20260506125545 -17 286 1.6 3.2 0.30 0.71 0.71 1006.1
20260506125042 -17 321 3.2 4.8 0.43 0.71 0.71 1006.0
20260506124540 -17 305 3.2 3.2 0.13 0.66 0.66 1006.1
20260506124037 -17 284 3.2 3.2 0.18 0.64 0.64 1006.0
20260506123535 -17 298 3.2 6.4 0.30 0.64 0.64 1005.9
20260506123033 -17 313 4.8 6.4 0.13 0.61 0.61 1005.7
20260506122529 -17 318 3.2 4.8 0.18 0.58 0.58 1005.6
20260506122028 -17 309 4.8 4.8 0.36 0.58 0.58 1005.5
20260506121525 -17 272 3.2 4.8 0.30 0.56 0.56 1005.9
20260506121021 -17 273 4.8 6.4 0.30 0.53 0.53 1005.9
20260506120519 -17 279 8.0 9.7 0.18 0.51 0.51 1005.9
20260506120016 -17 329 6.4 6.4 0.13 0.48 0.48 1005.7
20260506115514 -17 326 8.0 11.3 0.13 0.48 0.48 1005.7
20260506115012 -17 321 6.4 9.7 0.18 0.46 0.46 1006.0
20260506114509 -17 310 1.6 3.2 0.18 0.46 0.46 1005.6
20260506114008 -17 320 1.6 3.2 0.00 0.43 0.43 1005.7
20260506113505 -17 314 0.0 3.2 0.13 0.43 0.43 1005.7
20260506113002 -17 146 0.0 0.0 0.13 0.43 0.43 1005.6
20260506112459 -17 181 0.0 1.6 0.18 0.41 0.41 1005.9
20260506111956 -17 150 0.0 0.0 0.30 0.41 0.41 1005.6
20260506111454 -17 66 1.6 3.2 0.30 0.38 0.38 1005.7
20260506110951 -17 44 1.6 1.6 0.18 0.36 0.36 1005.9
20260506110449 -17 100 0.0 0.0 0.13 0.33 0.33 1006.0
20260506105945 -17 100 0.0 0.0 0.13 0.33 0.33 1006.0
20260506105441 -17 100 1.6 3.2 0.00 0.30 0.30 1005.9
20260506104939 -17 193 0.0 3.2 0.18 0.30 0.30 1006.0
20260506104437 -17 158 1.6 1.6 0.18 0.30 0.30 1006.1
20260506103935 -17 215 1.6 3.2 0.18 0.28 0.28 1006.3
20260506103432 -17 172 0.0 0.0 0.18 0.28 0.28 1005.9
20260506102928 -17 147 0.0 0.0 0.13 0.25 0.25 1006.2
20260506102427 -17 169 0.0 0.0 0.30 0.25 0.25 1006.1
20260506101924 -17 157 0.0 0.0 0.30 0.23 0.23 1006.1
20260506101420 -17 219 0.0 0.0 0.13 0.20 0.20 1006.0
20260506100917 -17 246 0.0 0.0 0.00 0.18 0.18 1006.0
20260506100416 -17 224 1.6 3.2 0.18 0.18 0.18 1006.3
20260506095913 -17 261 1.6 3.2 0.00 0.15 0.15 1005.9
20260506095411 -17 325 3.2 4.8 0.13 0.15 0.15 1006.1
20260506094907 -17 285 3.2 3.2 0.13 0.15 0.15 1006.3
20260506094406 -17 303 3.2 4.8 0.00 0.13 0.13 1006.4
20260506093903 -17 340 3.2 6.4 0.00 0.13 0.13 1006.4
20260506093401 -17 12 1.6 3.2 0.18 0.13 0.13 1006.5
20260506092859 -17 283 9.7 11.3 0.18 0.13 0.13 1006.5
20260506092356 -17 336 4.8 11.3 0.00 0.10 0.10 1006.8
20260506091852 -17 340 3.2 9.7 0.13 0.10 0.10 1006.7
20260506091351 -17 332 6.4 6.4 0.13 0.10 0.10 1006.5
20260506090848 -17 307 3.2 4.8 0.00 0.08 0.08 1006.6
20260506090345 -17 65 0.0 3.2 0.18 0.08 0.08 1006.2
20260506085842 -17 209 0.0 1.6 0.18 0.08 0.08 1006.2
20260506085338 -17 309 0.0 0.0 0.00 0.05 0.05 1006.5
20260506084835 -17 309 0.0 1.6 0.13 0.05 0.05 1006.5
20260506084332 -17 308 0.0 0.0 0.13 0.05 0.05 1006.6
20260506083828 -17 305 1.6 1.6 0.13 0.05 0.05 1006.5
20260506083326 -17 313 0.0 1.6 0.00 0.03 0.03 1006.5
20260506082823 -17 304 0.0 0.0 0.00 0.03 0.03 1006.3
20260506082319 -17 310 3.2 3.2 0.18 0.03 0.03 1006.5
20260506081816 -17 291 3.2 4.8 0.18 0.03 0.03 1006.5
20260506081314 -17 183 0.0 0.0 0.00 0.00 0.00 1006.3
20260506080811 -17 183 0.0 1.6 0.00 0.00 0.00 1006.2
20260506080307 -17 153 1.6 3.2 0.00 0.00 0.00 1006.0
20260506073251 -17 240 3.2 3.2 0.00 0.00 0.00 1006.5
20260506072748 -17 167 0.0 0.0 0.00 0.00 0.00 1006.2
20260506072246 -17 166 0.0 0.0 0.00 0.00 0.00 1006.3
20260506071744 -17 161 1.6 1.6 0.00 0.00 0.00 1006.3
20260506071241 -17 148 0.0 1.6 0.00 0.00 0.00 1006.6
20260506070738 -17 171 1.6 1.6 0.00 0.00 0.00 1006.4
20260506070235 -17 139 0.0 0.0 0.00 0.00 0.00 1006.6
20260506062212 -17 251 4.8 4.8 0.00 0.00 0.00 1007.4
20260506061708 -17 115 1.6 3.2 0.00 0.00 0.00 1007.2
20260506061205 -17 78 0.0 1.6 0.00 0.00 0.00 1007.4
20260506060704 -17 275 6.4 6.4 0.00 0.00 0.00 1007.8
20260506060201 -17 252 0.0 3.2 0.00 0.00 0.00 1007.7
20260506051132 -17 227 0.0 0.0 0.00 0.00 0.00 1008.4
20260506050631 -17 208 0.0 0.0 0.00 0.00 0.00 1008.4
20260506050128 -17 230 1.6 1.6 0.00 0.00 0.00 1008.4
20260506045121 -17 204 0.0 0.0 0.00 0.00 0.00 1008.3
20260506044619 -17 218 0.0 0.0 0.00 0.00 0.00 1008.5
20260506044115 -17 321 0.0 0.0 0.00 0.00 0.00 1008.4
20260506043613 -17 296 0.0 0.0 0.00 0.00 0.00 1008.3
20260506043111 -17 325 0.0 0.0 0.00 0.00 0.00 1008.3
20260506042610 -17 296 0.0 0.0 0.00 0.00 0.00 1008.2
20260506042107 -17 296 0.0 0.0 0.00 0.00 0.00 1007.9
20260506041606 -17 236 1.6 1.6 0.00 0.00 0.00 1007.9
20260506041102 -17 297 0.0 0.0 0.00 0.00 0.00 1008.1
20260506040600 -17 276 0.0 0.0 0.00 0.00 0.00 1008.5
20260506040056 -17 277 1.6 1.6 0.00 0.00 0.00 1008.3
20260506035553 -17 335 1.6 3.2 0.00 0.84 0.84 1008.3
20260506035050 -17 236 1.6 3.2 0.00 0.84 0.84 1008.5
20260506034547 -17 150 0.0 1.6 0.00 0.84 0.84 1008.4
20260506034044 -17 209 0.0 1.6 0.00 0.84 0.84 1008.8
20260506033541 -17 262 1.6 4.8 0.00 0.84 0.84 1008.8
20260506033038 -17 268 1.6 1.6 0.00 0.84 0.84 1009.0
20260506032535 -17 273 3.2 3.2 0.00 0.84 0.84 1008.8
20260506032032 -17 279 1.6 6.4 0.00 0.84 0.84 1008.8
20260506031530 -17 318 1.6 3.2 0.00 0.84 0.84 1008.8
20260506031026 -17 258 0.0 3.2 0.00 0.84 0.84 1008.9
20260506030525 -17 51 0.0 0.0 0.00 0.84 0.84 1009.0
20260506030021 -17 51 0.0 1.6 0.00 0.84 0.84 1009.0
20260506025518 -17 51 0.0 1.6 0.13 0.84 0.84 1009.2
20260506025014 -17 50 0.0 1.6 0.13 0.84 0.84 1009.1
20260506024512 -17 51 3.2 4.8 0.00 0.81 0.81 1008.4
20260506024008 -17 268 0.0 0.0 0.00 0.81 0.81 1009.2
20260506023504 -17 266 1.6 1.6 0.00 0.81 0.81 1009.3
20260506023001 -17 305 3.2 3.2 0.00 0.81 0.81 1009.2
20260506022459 -17 277 0.0 0.0 0.00 0.81 0.81 1009.2
20260506021956 -17 329 1.6 4.8 0.00 0.81 0.81 1009.0
20260506021454 -17 324 1.6 3.2 0.00 0.81 0.81 1009.1
20260506020951 -17 352 0.0 1.6 0.00 0.81 0.81 1008.8
20260506020448 -17 20 1.6 6.4 0.00 0.81 0.81 1008.9
20260506015945 -17 348 3.2 11.3 0.00 0.81 0.81 1008.4
20260506015443 -17 313 6.4 6.4 0.00 0.81 0.81 1008.2
20260506014939 -17 336 6.4 6.4 0.00 0.81 0.81 1008.3
20260506014437 -17 331 9.7 12.9 0.00 0.81 0.81 1008.4
20260506013933 -17 319 4.8 9.7 0.00 0.81 0.81 1008.3
20260506013431 -17 327 8.0 9.7 0.00 0.81 0.81 1008.2
20260506012927 -17 318 1.6 3.2 0.00 0.81 0.81 1008.4
20260506012424 -17 316 1.6 1.6 0.00 0.81 0.81 1008.1
20260506011921 -17 316 0.0 1.6 0.00 0.81 0.81 1008.0
20260506011418 -17 307 1.6 1.6 0.00 0.81 0.81 1008.0
20260506010915 -17 304 4.8 6.4 0.00 0.81 0.81 1008.0
20260506010414 -17 317 4.8 6.4 0.00 0.81 0.81 1007.8
20260506005909 -17 328 4.8 4.8 0.00 0.81 0.81 1008.2
20260506005408 -17 51 0.0 1.6 0.00 0.81 0.81 1008.2
20260506004902 -17 341 1.6 3.2 0.00 0.81 0.81 1008.2
20260506004401 -17 301 0.0 1.6 0.00 0.81 0.81 1008.1
20260506003856 -17 314 4.8 6.4 0.00 0.81 0.81 1008.4
20260506003353 -17 324 11.3 11.3 0.00 0.81 0.81 1008.3
20260506002849 -17 287 11.3 12.9 0.00 0.81 0.81 1008.2
20260506002345 -17 36 1.6 3.2 0.00 0.81 0.81 1008.1
20260506001841 -17 343 4.8 9.7 0.00 0.81 0.81 1007.8
20260506001338 -17 4 6.4 9.7 0.00 0.81 0.81 1007.4
20260506000835 -17 315 9.7 11.3 0.00 0.81 0.81 1007.2
20260506000333 -17 346 12.9 17.7 0.00 0.81 0.81 1007.1
20260505235830 -17 319 9.7 24.1 0.18 0.81 0.81 1007.2
20260505235327 -17 336 14.5 17.7 0.36 0.81 0.81 1007.0
20260505234824 -17 345 14.5 20.9 0.30 0.79 0.79 1007.0
20260505234322 -17 308 16.1 25.7 0.13 0.76 0.76 1007.0
20260505233819 -17 272 11.3 12.9 1.07 0.74 0.74 1006.9
20260505233317 -17 302 8.0 9.7 1.50 0.66 0.66 1006.6
20260505232813 -17 283 3.2 4.8 1.80 0.56 0.56 1006.4
20260505232311 -17 272 6.4 11.3 2.16 0.41 0.41 1006.6
20260505231808 -17 281 6.4 6.4 1.07 0.23 0.23 1006.5
20260505231306 -17 191 6.4 9.7 0.00 0.05 0.05 1006.2
20260505230804 -17 301 3.2 4.8 0.00 0.05 0.05 1005.4
20260505230300 -17 313 4.8 6.4 0.00 0.05 0.05 1005.2
20260505225757 -17 311 3.2 6.4 0.00 0.05 0.05 1005.3
20260505225254 -17 295 6.4 6.4 0.00 0.05 0.05 1005.2
20260505224749 -17 293 4.8 4.8 0.00 0.05 0.05 1005.4
20260505224247 -17 279 0.0 3.2 0.00 0.05 0.05 1005.3
20260505223744 -17 191 1.6 1.6 0.00 0.05 0.05 1005.4
20260505223241 -17 289 3.2 3.2 0.00 0.05 0.05 1005.4
20260505222737 -17 76 1.6 1.6 0.00 0.05 0.05 1005.0
20260505222233 -17 278 0.0 1.6 0.00 0.05 0.05 1005.2
20260505221730 -17 287 1.6 3.2 0.00 0.05 0.05 1005.0
20260505221227 -17 298 3.2 3.2 0.00 0.05 0.05 1005.1
20260505220724 -17 219 3.2 4.8 0.00 0.05 0.05 1005.1
20260505220221 -17 278 3.2 11.3 0.00 0.05 0.05 1005.0
20260505215719 -17 262 6.4 9.7 0.00 0.05 0.05 1005.0
20260505215217 -17 301 3.2 4.8 0.00 0.05 0.05 1005.1
20260505214714 -17 265 3.2 4.8 0.00 0.05 0.05 1005.0
20260505214212 -17 290 6.4 9.7 0.00 0.05 0.05 1005.1
20260505213709 -17 268 8.0 9.7 0.00 0.05 0.05 1004.8
20260505213206 -17 279 6.4 11.3 0.00 0.05 0.05 1004.8
20260505212702 -17 238 3.2 3.2 0.00 0.05 0.05 1004.4
20260505212159 -17 165 0.0 3.2 0.00 0.05 0.05 1004.6
20260505211656 -17 167 6.4 12.9 0.00 0.05 0.05 1004.5
20260505211153 -17 156 3.2 4.8 0.00 0.05 0.05 1004.5
20260505210650 -17 174 0.0 6.4 0.00 0.05 0.05 1004.7
20260505210147 -17 156 1.6 12.9 0.00 0.05 0.05 1004.6
20260505205644 -17 102 3.2 9.7 0.00 0.05 0.05 1004.6
20260505205142 -17 130 8.0 9.7 0.00 0.05 0.05 1004.5
20260505204639 -17 161 4.8 9.7 0.00 0.05 0.05 1004.7
20260505204137 -17 124 4.8 9.7 0.00 0.05 0.05 1004.6
20260505203633 -17 132 4.8 9.7 0.00 0.05 0.05 1004.6
20260505203130 -17 130 6.4 16.1 0.00 0.05 0.05 1004.6
20260505202626 -17 116 3.2 12.9 0.00 0.05 0.05 1005.0
20260505202122 -17 142 6.4 11.3 0.00 0.05 0.05 1005.3
20260505201619 -17 122 6.4 11.3 0.00 0.05 0.05 1005.2
20260505201117 -17 127 6.4 11.3 0.00 0.05 0.05 1005.5
20260505200614 -17 84 3.2 12.9 0.00 0.05 0.05 1005.4
20260505200111 -17 107 8.0 16.1 0.00 0.05 0.05 1005.6
20260505195607 -17 128 8.0 20.9 0.00 0.05 0.05 1005.5
20260505195105 -17 113 11.3 17.7 0.00 0.05 0.05 1005.4
20260505194602 -17 139 9.7 12.9 0.00 0.05 0.05 1005.5
20260505194058 -17 245 0.0 1.6 0.00 0.05 0.05 1005.2
20260505193555 -17 312 1.6 1.6 0.00 0.05 0.05 1005.3
20260505193052 -17 294 0.0 1.6 0.00 0.05 0.05 1005.2
20260505192550 -17 274 1.6 3.2 0.00 0.05 0.05 1005.0
20260505192047 -17 291 4.8 4.8 0.00 0.05 0.05 1004.9
20260505191546 -17 299 6.4 9.7 0.00 0.05 0.05 1005.2
20260505191043 -17 292 6.4 9.7 0.00 0.05 0.05 1005.2
20260505190537 -17 289 8.0 11.3 0.00 0.05 0.05 1005.0
20260505190034 -17 340 6.4 6.4 0.00 0.05 0.05 1005.0
20260505185531 -17 318 4.8 9.7 0.00 0.05 0.05 1005.0
20260505185027 -17 344 8.0 12.9 0.13 0.05 0.05 1005.1
20260505184524 -17 303 8.0 11.3 0.13 0.05 0.05 1004.8
20260505184021 -17 323 9.7 12.9 0.18 0.03 0.03 1005.1
20260505183518 -17 336 17.7 25.7 0.18 0.03 0.03 1005.2
20260505183015 -17 314 20.9 30.6 0.00 0.00 0.00 1005.0
20260505182506 -17 295 27.4 33.8 0.00 0.00 0.00 1004.6
20260505182002 -17 234 4.8 11.3 0.00 0.00 0.00 1003.9
20260505181459 -17 2 1.6 9.7 0.00 0.00 0.00 1003.8
20260505180956 -17 6 6.4 17.7 0.00 0.00 0.00 1003.6
20260505180452 -17 251 19.3 29.0 0.00 0.00 0.00 1003.9
20260505175949 -17 169 6.4 25.7 0.00 0.00 0.00 1003.9
20260505175445 -17 138 17.7 22.5 0.00 0.00 0.00 1003.8
20260505174942 -17 229 11.3 12.9 0.00 0.00 0.00 1004.1
20260505174439 -17 236 14.5 22.5 0.00 0.00 0.00 1004.1
20260505173935 -17 272 9.7 12.9 0.00 0.00 0.00 1004.0
20260505173431 -17 294 3.2 9.7 0.00 0.00 0.00 1004.4
20260505172929 -17 242 3.2 11.3 0.00 0.00 0.00 1004.5
20260505172427 -17 199 3.2 11.3 0.00 0.00 0.00 1004.5
20260505171926 -17 245 3.2 11.3 0.00 0.00 0.00 1004.7
20260505171423 -17 286 8.0 17.7 0.00 0.00 0.00 1004.6
20260505170920 -17 159 3.2 11.3 0.00 0.00 0.00 1004.7
20260505170416 -17 186 4.8 11.3 0.00 0.00 0.00 1004.4
20260505165912 -17 237 6.4 17.7 0.00 0.00 0.00 1004.6
20260505165408 -17 142 3.2 20.9 0.00 0.00 0.00 1004.6
20260505164903 -17 198 4.8 12.9 0.00 0.00 0.00 1004.2
20260505164400 -17 316 3.2 17.7 0.00 0.00 0.00 1004.1
20260505163858 -17 265 17.7 20.9 0.00 0.00 0.00 1004.0
20260505163357 -17 189 9.7 14.5 0.00 0.00 0.00 1004.1
20260505162855 -17 217 14.5 22.5 0.00 0.00 0.00 1004.1
20260505162351 -17 203 11.3 25.7 0.00 0.00 0.00 1003.7
20260505161848 -17 112 17.7 27.4 0.00 0.00 0.00 1003.8
20260505161345 -17 139 0.0 3.2 0.00 0.00 0.00 1004.2
20260505160842 -17 144 11.3 16.1 0.00 0.00 0.00 1003.9
20260505160340 -17 144 6.4 14.5 0.00 0.00 0.00 1004.2
20260505153319 -17 296 9.7 14.5 0.00 0.00 0.00 1004.6
20260505152816 -17 230 4.8 12.9 0.00 0.00 0.00 1004.6
20260505152313 -17 170 9.7 12.9 0.00 0.00 0.00 1004.5
20260505151808 -17 209 11.3 16.1 0.00 0.00 0.00 1004.3